Regional Weather Roundup
Issued by NWS Sterling, VA

Home | Current Version | Previous Version | Text Only | Print | Product List | Glossary Off
Versions: 1 2 3 4 5 6 7 8 9 10 11 12 13 14 15 16 17 18 19 20 21 22 23 24 25 26 27 28 29 30 31 32 33 34 35 36 37 38 39 40 41 42 43 44 45 46 47 48 49 50

000
ASUS41 KLWX 292210
RWRLWX

REGIONAL WEATHER ROUNDUP
NATIONAL WEATHER SERVICE BALTIMORE MD/WASHINGTON DC
600 PM EDT FRI JUL 29 2016

Note: "FAIR" indicates few or no clouds below 12,000 feet
with no significant weather and/or obstructions to visibility.
 TC=TEMPERATURE CELSIUS

 * =Non NWS site. Station does not report precipitation (e.g. rain,
    snow, etc.), thunder, or fog.

DCZ001-MDZ009-015-VAZ040>042-051-053>054-292300-
WASHINGTON METRO

CITY           SKY/WX    TMP DP  RH WIND       PRES   REMARKS
WASHINGTON NAT PTSUNNY   88  70  55 S8        29.88R HX  93
DULLES         FAIR      88  67  49 NW6       29.89R HX  91
ANDREWS AFB    MOSUNNY   86  71  62 SE5       29.88R HX  91
FT BELVOIR     FAIR      90  68  48 NW5       29.88  HX  93
LEESBURG*      FAIR      90  72  55 W3        29.90S HX  96
MANASSAS*      MOSUNNY   88  68  51 VRB5      29.89R HX  91
GAITHERSBURG*  CLOUDY    82  70  65 NW5       29.93S

$$

MDZ006>007-011-014-292300-
BALTIMORE METRO

CITY           SKY/WX    TMP DP  RH WIND       PRES   REMARKS
BWI AIRPORT    MOSUNNY   86  70  58 SE6       29.87R HX  90
MD SCIENCE CTR   N/A     86  69  56 MISG      29.86F HX  90
MARTIN STATE   SUNNY     88  75  66 CALM      29.88R HX  97
ANNAPOLIS      SUNNY     85  73  67 SE6       29.87S HX  91
FORT MEADE*    PTSUNNY   82  72  69 E6        29.90R

$$

MDZ012-015-019>023-292300-
MARYLAND EASTERN SHORE

CITY           SKY/WX    TMP DP  RH WIND       PRES   REMARKS
OCEAN CITY     PTSUNNY   79  72  79 E6        29.88R
SALISBURY      NOT AVBL
BAY BRIDGE AP* SUNNY     86  72  62 W3        29.88R HX  92
CAMBRIDGE*     SUNNY     84  68  58 NW5       29.88R
EASTON*        MOSUNNY   86  75  70 N5        29.92R HX  95

$$

MDZ017>025-292300-
SOUTHERN MARYLAND

CITY           SKY/WX    TMP DP  RH WIND       PRES   REMARKS
PATUXENT RIVER NOT AVBL
ST INIGOES     SUNNY     86  73  65 VRB3      29.88R HX  93
LEONARDTOWN*     N/A     86  68  54 CALM      29.90

$$

MDZ003>005-292300-
NORTH CENTRAL MARYLAND

CITY           SKY/WX    TMP DP  RH WIND       PRES   REMARKS
FREDERICK*     PTSUNNY   88  72  58 VRB3      29.91R HX  94
HAGERSTOWN APT PTSUNNY   88  66  48 W7        29.89S HX  90

$$

MDZ501>502-292300-
WESTERN MARYLAND

CITY           SKY/WX    TMP DP  RH WIND       PRES   REMARKS
OAKLAND*       PTSUNNY   72  63  73 CALM      30.04S
CUMBERLAND*    SUNNY     88  66  48 S6        29.94S HX  90

$$

VAZ025>031-292300-
SHENANDOAH VALLEY

CITY           SKY/WX    TMP DP  RH WIND       PRES   REMARKS
WINCHESTER*    FAIR      88  64  45 CALM      29.90F
FRONT ROYAL*   FAIR      82  70  65 CALM      29.90F
LURAY*         NOT AVBL
NEW MARKET*    FAIR     N/A N/A N/A CALM      29.91S
STAUNTON*      FAIR      82  66  56 CALM      29.96S
WAYNESBORO*    FAIR      82  66  58 CALM      29.96F

$$

WVZ021-048>050-054>055-292300-
EASTERN WEST VIRGINIA PANHANDLE

CITY           SKY/WX    TMP DP  RH WIND       PRES   REMARKS
MARTINSBURG    FAIR      88  65  46 W3        29.88F HX  90
PETERSBURG*    FAIR      87  67  52 CALM      29.92S HX  90

$$

VAZ036>039-050-292300-
CENTRAL FOOTHILLS

CITY           SKY/WX    TMP DP  RH WIND       PRES   REMARKS
CHARLOTTESVILL CLOUDY    88  66  48 CALM      29.91S HX  90
CULPEPER*      FAIR      88  69  53 W3        29.91S HX  92
ORANGE*          N/A     86  68  54 CALM      29.93S
GORDONSVILLE*  FAIR      86  71  59 CALM      29.91S HX  91
WARRENTON*     FAIR      90  61  38 CALM      29.90R

$$

VAZ055>057-292300-
NORTH AND CENTRAL PIEDMONT

CITY           SKY/WX    TMP DP  RH WIND       PRES   REMARKS
FREDERICKSBRG*   N/A     88  70  54 CALM      29.89R HX  93
STAFFORD*      FAIR      87  68  54 CALM      29.94R HX  90

$$

NCZ024-NYZ072-PAZ021-071-VAZ022-071-292300-
OTHER REGIONAL OBSERVATIONS

CITY           SKY/WX    TMP DP  RH WIND       PRES   REMARKS
NEW YORK CITY  SUNNY     83  69  62 CALM      29.87R
PHILADELPHIA   MOSUNNY   88  67  49 SE5       29.86S HX  91
PITTSBURGH     PTSUNNY   84  62  47 S7        29.93R
ROANOKE        FAIR      88  66  48 W7        29.96S HX  90
RICHMOND       FAIR      86  70  58 N8        29.90R HX  90
RALEIGH        MOSUNNY   91  68  46 VRB6      29.92R HX  95

$$

ANZ530>537-292300-
MARINE OBSERVATIONS

STATION/POSITION TIME  TEMP    WIND        PRES
                       AIR SEA DIR/SP/G
                 (UTC) (F)     (DEG/KT/KT) (MB)
THOMAS PT LIGHT  2200   83 84  180/  5/  6 1013.2R
BALT KEY BRIDGE  2148   84     130/  7/  9 1011.4R
COVE POINT       2148   83      80/  3/  4 1012.5R
LEWISETTA        2148   85 87  310/  4/  5 1011.7R
SOLOMONS ISLAND  2136   87 85  260/  4/  5   N/A
PINEY POINT      2148          290/  5/  6   N/A

$$




USA.gov is the U.S. government's official web portal to all federal, state and local government web resources and services.